SNKJ6 RPLL-RPVI

Flight info

Callsign SNKJ6
Flight time 0h 47m
Altitude 31000
Route VERDE2R VERDE A461 SAJ W3 BEDER BEDER1N
Aircraft A320/M-SDE3FGHIRWY/LB1

Departure

Time 2026-04-16 04:14
Airport Ninoy Aquino International Airport (RPLL)

Arrival

Time 2026-04-16 05:01
Airport Iloilo International Airport (RPVI)
Time Latitude Longitude Altitude Speed Heading
2026-04-16 03:54 14.50881 121.01370 69 ft 0 kts 329°
2026-04-16 04:05 14.50875 121.01374 62 ft 4 kts 329°
2026-04-16 04:05 14.50851 121.01388 61 ft 4 kts 330°
2026-04-16 04:06 14.50832 121.01399 65 ft 2 kts 329°
2026-04-16 04:06 14.50816 121.01415 60 ft 4 kts 279°
2026-04-16 04:06 14.50819 121.01439 64 ft 3 kts 241°
2026-04-16 04:06 14.50828 121.01455 76 ft 1 kts 240°
2026-04-16 04:09 14.50827 121.01453 68 ft 2 kts 244°
2026-04-16 04:09 14.50820 121.01437 64 ft 6 kts 243°
2026-04-16 04:09 14.50773 121.01355 61 ft 16 kts 236°
2026-04-16 04:10 14.50673 121.01303 65 ft 16 kts 212°
2026-04-16 04:10 14.50609 121.01205 64 ft 18 kts 241°
2026-04-16 04:10 14.50540 121.01084 67 ft 21 kts 240°
2026-04-16 04:10 14.50463 121.00945 66 ft 23 kts 240°
2026-04-16 04:11 14.50379 121.00795 63 ft 25 kts 239°
2026-04-16 04:11 14.50289 121.00637 63 ft 26 kts 240°
2026-04-16 04:11 14.50197 121.00470 65 ft 27 kts 239°
2026-04-16 04:11 14.50103 121.00299 63 ft 28 kts 239°
2026-04-16 04:12 14.50011 121.00128 64 ft 25 kts 241°
2026-04-16 04:12 14.49937 121.00004 66 ft 19 kts 237°
2026-04-16 04:12 14.49852 120.99976 67 ft 13 kts 159°
2026-04-16 04:12 14.49828 121.00002 63 ft 4 kts 120°
2026-04-16 04:13 14.49817 121.00021 63 ft 3 kts 119°
2026-04-16 04:13 14.49815 121.00057 69 ft 8 kts 76°
2026-04-16 04:13 14.49837 121.00106 64 ft 7 kts 62°
2026-04-16 04:13 14.49904 121.00226 64 ft 47 kts 59°
2026-04-16 04:14 14.50184 121.00731 65 ft 112 kts 60°
2026-04-16 04:14 14.50650 121.01589 72 ft 160 kts 61°
2026-04-16 04:14 14.51213 121.02648 494 ft 174 kts 64°
2026-04-16 04:14 14.51776 121.03808 990 ft 187 kts 64°
2026-04-16 04:15 14.52401 121.04957 1720 ft 186 kts 61°
2026-04-16 04:15 14.53088 121.06146 2141 ft 203 kts 60°
2026-04-16 04:15 14.53837 121.07472 2389 ft 223 kts 65°
2026-04-16 04:15 14.54152 121.09080 2723 ft 242 kts 96°
2026-04-16 04:16 14.53502 121.10728 3187 ft 259 kts 131°
2026-04-16 04:16 14.51979 121.11729 3920 ft 269 kts 165°
2026-04-16 04:16 14.50095 121.11837 4760 ft 275 kts 180°
2026-04-16 04:16 14.48169 121.11702 5596 ft 279 kts 183°
2026-04-16 04:17 14.46226 121.11503 6417 ft 282 kts 184°
2026-04-16 04:17 14.44259 121.11289 7197 ft 285 kts 184°
2026-04-16 04:17 14.42271 121.11082 7986 ft 288 kts 184°
2026-04-16 04:17 14.40264 121.10885 8766 ft 291 kts 183°
2026-04-16 04:18 14.38232 121.10700 9543 ft 295 kts 183°
2026-04-16 04:18 14.36180 121.10519 10241 ft 299 kts 183°
2026-04-16 04:18 14.34025 121.10334 10468 ft 322 kts 183°
2026-04-16 04:18 14.33288 121.10271 10512 ft 330 kts 183°
2026-04-16 04:19 14.28765 121.09886 11133 ft 358 kts 184°
2026-04-16 04:19 14.26263 121.09668 11719 ft 363 kts 184°
2026-04-16 04:19 14.23763 121.09450 12293 ft 367 kts 184°
2026-04-16 04:19 14.21169 121.09225 12890 ft 372 kts 184°
2026-04-16 04:20 14.18571 121.09000 13484 ft 376 kts 184°
2026-04-16 04:20 14.15980 121.08780 14025 ft 380 kts 184°
2026-04-16 04:20 14.13327 121.08557 14541 ft 384 kts 184°
2026-04-16 04:20 14.10654 121.08332 15055 ft 388 kts 184°
2026-04-16 04:21 14.07949 121.08101 15554 ft 392 kts 184°
2026-04-16 04:21 14.05225 121.07866 16060 ft 395 kts 184°
2026-04-16 04:21 14.02469 121.07629 16534 ft 399 kts 184°
2026-04-16 04:21 13.99695 121.07390 17027 ft 402 kts 184°
2026-04-16 04:22 13.96895 121.07150 17506 ft 406 kts 184°
2026-04-16 04:22 13.95022 121.06988 17813 ft 408 kts 184°
2026-04-16 04:22 13.92176 121.06741 18273 ft 412 kts 184°
2026-04-16 04:22 13.89314 121.06494 18684 ft 414 kts 184°
2026-04-16 04:23 13.86429 121.06247 19120 ft 416 kts 184°
2026-04-16 04:23 13.83540 121.06001 19556 ft 418 kts 184°
2026-04-16 04:23 13.80627 121.05755 19986 ft 420 kts 184°
2026-04-16 04:23 13.77716 121.05508 20434 ft 421 kts 184°
2026-04-16 04:24 13.74789 121.05259 20866 ft 422 kts 184°
2026-04-16 04:24 13.71853 121.05011 21260 ft 425 kts 184°
2026-04-16 04:24 13.68895 121.04760 21667 ft 427 kts 184°
2026-04-16 04:24 13.65934 121.04506 22083 ft 429 kts 184°
2026-04-16 04:25 13.62947 121.04249 22450 ft 432 kts 184°
2026-04-16 04:25 13.59953 121.03989 22872 ft 433 kts 184°
2026-04-16 04:25 13.56939 121.03729 23297 ft 434 kts 184°
2026-04-16 04:25 13.53925 121.03473 23675 ft 435 kts 184°
2026-04-16 04:26 13.50907 121.03225 23990 ft 436 kts 183°
2026-04-16 04:26 13.47865 121.03198 24317 ft 437 kts 179°
2026-04-16 04:26 13.44812 121.03235 24639 ft 439 kts 179°
2026-04-16 04:26 13.41790 121.03269 24948 ft 441 kts 179°
2026-04-16 04:27 13.38722 121.03301 25248 ft 442 kts 179°
2026-04-16 04:27 13.35637 121.03331 25554 ft 444 kts 179°
2026-04-16 04:27 13.32546 121.03360 25848 ft 445 kts 179°
2026-04-16 04:27 13.29437 121.03389 26153 ft 447 kts 179°
2026-04-16 04:28 13.26316 121.03419 26449 ft 449 kts 179°
2026-04-16 04:28 13.23185 121.03449 26768 ft 450 kts 179°
2026-04-16 04:28 13.20050 121.03479 27076 ft 452 kts 179°
2026-04-16 04:28 13.16889 121.03509 27354 ft 454 kts 179°
2026-04-16 04:29 13.13728 121.03540 27629 ft 456 kts 179°
2026-04-16 04:29 13.10548 121.03571 27922 ft 457 kts 179°
2026-04-16 04:29 13.07364 121.03603 28193 ft 459 kts 179°
2026-04-16 04:29 13.04159 121.03635 28439 ft 461 kts 179°
2026-04-16 04:30 13.00985 121.03669 28704 ft 462 kts 179°
2026-04-16 04:30 12.97759 121.03704 28955 ft 464 kts 179°
2026-04-16 04:30 12.94532 121.03739 29241 ft 465 kts 179°
2026-04-16 04:30 12.91285 121.03773 29472 ft 467 kts 179°
2026-04-16 04:31 12.88034 121.03803 29750 ft 468 kts 179°
2026-04-16 04:31 12.81342 121.03867 30195 ft 471 kts 179°
2026-04-16 04:31 12.78071 121.03899 30486 ft 470 kts 179°
2026-04-16 04:32 12.74799 121.03931 30784 ft 469 kts 179°
2026-04-16 04:32 12.71534 121.03963 30918 ft 468 kts 179°
2026-04-16 04:32 12.65140 121.04027 30953 ft 460 kts 179°
2026-04-16 04:33 12.61947 121.04056 30945 ft 458 kts 179°
2026-04-16 04:33 12.52257 121.04148 30945 ft 457 kts 179°
2026-04-16 04:34 12.45939 121.04218 30942 ft 456 kts 179°
2026-04-16 04:34 12.39607 121.04607 30938 ft 456 kts 168°
2026-04-16 04:35 12.33731 121.06971 30929 ft 456 kts 147°
2026-04-16 04:35 12.28890 121.11145 30928 ft 455 kts 136°
2026-04-16 04:36 12.24268 121.15581 30924 ft 456 kts 137°
2026-04-16 04:36 12.19626 121.20008 30922 ft 456 kts 137°
2026-04-16 04:37 12.14981 121.24446 30919 ft 457 kts 137°
2026-04-16 04:37 12.10349 121.28877 30922 ft 457 kts 137°
2026-04-16 04:38 12.05736 121.33282 30922 ft 456 kts 137°
2026-04-16 04:38 12.01096 121.37704 30927 ft 456 kts 137°
2026-04-16 04:39 11.96456 121.42135 30922 ft 456 kts 137°
2026-04-16 04:39 11.91818 121.46565 30919 ft 456 kts 137°
2026-04-16 04:40 11.87177 121.50988 30925 ft 456 kts 137°
2026-04-16 04:40 11.82526 121.55414 30919 ft 457 kts 137°
2026-04-16 04:41 11.77872 121.59846 30691 ft 458 kts 137°
2026-04-16 04:41 11.75543 121.62063 30463 ft 458 kts 137°
2026-04-16 04:41 11.73213 121.64279 30239 ft 459 kts 137°
2026-04-16 04:42 11.70874 121.66502 30011 ft 459 kts 137°
2026-04-16 04:42 11.68564 121.68698 29747 ft 459 kts 137°
2026-04-16 04:42 11.66241 121.70902 29145 ft 454 kts 137°
2026-04-16 04:42 11.63932 121.73091 28484 ft 451 kts 137°
2026-04-16 04:43 11.61648 121.75254 27856 ft 447 kts 137°
2026-04-16 04:43 11.59378 121.77408 27234 ft 444 kts 137°
2026-04-16 04:43 11.57128 121.79548 26628 ft 440 kts 136°
2026-04-16 04:43 11.54899 121.81670 26003 ft 438 kts 136°
2026-04-16 04:44 11.52677 121.83782 25379 ft 435 kts 136°
2026-04-16 04:44 11.50473 121.85875 24790 ft 432 kts 136°
2026-04-16 04:44 11.48278 121.87956 24189 ft 430 kts 136°
2026-04-16 04:44 11.46095 121.90028 23614 ft 427 kts 136°
2026-04-16 04:45 11.43932 121.92082 22990 ft 424 kts 136°
2026-04-16 04:45 11.41789 121.94119 22475 ft 418 kts 136°
2026-04-16 04:45 11.39679 121.96124 21969 ft 412 kts 136°
2026-04-16 04:45 11.37587 121.98106 21480 ft 408 kts 136°
2026-04-16 04:46 11.35523 122.00061 21001 ft 403 kts 136°
2026-04-16 04:46 11.33478 122.01998 20524 ft 399 kts 136°
2026-04-16 04:46 11.31456 122.03912 20050 ft 396 kts 135°
2026-04-16 04:46 11.29446 122.05819 19552 ft 393 kts 135°
2026-04-16 04:47 11.27447 122.07716 19057 ft 391 kts 135°
2026-04-16 04:47 11.25458 122.09599 18558 ft 390 kts 135°
2026-04-16 04:47 11.23494 122.11455 18029 ft 390 kts 135°
2026-04-16 04:47 11.21510 122.13335 17483 ft 388 kts 135°
2026-04-16 04:48 11.19542 122.15202 16969 ft 385 kts 135°
2026-04-16 04:48 11.17584 122.17058 16449 ft 383 kts 135°
2026-04-16 04:48 11.15630 122.18906 15933 ft 381 kts 135°
2026-04-16 04:48 11.13694 122.20738 15423 ft 380 kts 136°
2026-04-16 04:49 11.11778 122.22550 15236 ft 369 kts 135°
2026-04-16 04:49 11.09926 122.24296 15110 ft 358 kts 135°
2026-04-16 04:49 11.08125 122.25996 14990 ft 346 kts 135°
2026-04-16 04:49 11.06406 122.27621 14787 ft 331 kts 135°
2026-04-16 04:50 11.04740 122.29196 14331 ft 323 kts 136°
2026-04-16 04:50 11.03101 122.30742 13910 ft 319 kts 136°
2026-04-16 04:50 11.01500 122.32248 13425 ft 317 kts 135°
2026-04-16 04:50 10.99893 122.33754 12935 ft 312 kts 135°
2026-04-16 04:51 10.98287 122.35258 12524 ft 314 kts 135°
2026-04-16 04:51 10.96697 122.36747 12301 ft 308 kts 136°
2026-04-16 04:51 10.94982 122.38051 11914 ft 308 kts 150°
2026-04-16 04:51 10.92979 122.38776 11337 ft 307 kts 168°
2026-04-16 04:52 10.90848 122.38830 10739 ft 307 kts 186°
2026-04-16 04:52 10.88787 122.38323 10237 ft 303 kts 193°
2026-04-16 04:52 10.86764 122.37768 9774 ft 300 kts 192°
2026-04-16 04:52 10.84740 122.37223 9298 ft 303 kts 193°
2026-04-16 04:53 10.82715 122.36680 8895 ft 301 kts 192°
2026-04-16 04:53 10.80700 122.36139 8443 ft 296 kts 193°
2026-04-16 04:53 10.78727 122.35607 7924 ft 290 kts 193°
2026-04-16 04:53 10.76781 122.35083 7475 ft 289 kts 194°
2026-04-16 04:54 10.74847 122.34559 7037 ft 287 kts 194°
2026-04-16 04:54 10.72921 122.34035 6607 ft 286 kts 194°
2026-04-16 04:54 10.71007 122.33517 6246 ft 279 kts 194°
2026-04-16 04:54 10.69204 122.33073 6177 ft 256 kts 185°
2026-04-16 04:55 10.67490 122.33242 6096 ft 247 kts 158°
2026-04-16 04:55 10.66039 122.34129 5784 ft 246 kts 132°
2026-04-16 04:55 10.65116 122.35614 5144 ft 256 kts 109°
2026-04-16 04:55 10.64520 122.37335 4477 ft 257 kts 109°
2026-04-16 04:56 10.63938 122.39009 3816 ft 244 kts 104°
2026-04-16 04:56 10.63834 122.40656 3214 ft 230 kts 75°
2026-04-16 04:56 10.64542 122.42028 2797 ft 211 kts 44°
2026-04-16 04:56 10.65719 122.42809 2759 ft 196 kts 22°
2026-04-16 04:57 10.66914 122.43253 2728 ft 169 kts 22°
2026-04-16 04:57 10.67958 122.43641 2679 ft 154 kts 22°
2026-04-16 04:57 10.68939 122.44007 2648 ft 147 kts 24°
2026-04-16 04:57 10.69882 122.44357 2587 ft 142 kts 22°
2026-04-16 04:58 10.70817 122.44707 2474 ft 143 kts 22°
2026-04-16 04:58 10.71763 122.45038 2333 ft 145 kts 21°
2026-04-16 04:58 10.72695 122.45414 2002 ft 143 kts 25°
2026-04-16 04:58 10.73603 122.45778 1805 ft 141 kts 22°
2026-04-16 04:59 10.74532 122.46113 1724 ft 141 kts 22°
2026-04-16 04:59 10.75456 122.46455 1500 ft 142 kts 21°
2026-04-16 04:59 10.76373 122.46781 1237 ft 138 kts 22°
2026-04-16 04:59 10.77270 122.47112 1115 ft 139 kts 21°
2026-04-16 05:00 10.78173 122.47450 937 ft 138 kts 22°
2026-04-16 05:00 10.79065 122.47770 769 ft 140 kts 22°
2026-04-16 05:00 10.79979 122.48110 578 ft 141 kts 22°
2026-04-16 05:00 10.80890 122.48446 452 ft 140 kts 22°
2026-04-16 05:01 10.81809 122.48787 287 ft 141 kts 22°
2026-04-16 05:01 10.82706 122.49117 148 ft 131 kts 23°
2026-04-16 05:01 10.83413 122.49380 141 ft 70 kts 19°
2026-04-16 05:01 10.83593 122.49441 141 ft 23 kts 15°